Probability
5 7 6 3 1 0 0 0 0 0 1 0 0 0 0 0 0 0 0 0 0 0 0 0 0 0 0 0 0 0 0 0 0 0 0 0 0 0 0 0 0 0 0
8 8 6 4 1 1 2 2 1 1 1 1 0 0 0 0 0 0 0 0 0 0 0 0 0 0 0 0 0 0 0 0 0 0 0 0 0 0 0 0 0 0 0
13 10 7 5 3 3 6 6 4 3 3 2 1 1 1 1 0 0 0 0 0 0 0 0 0 0 0 0 0 0 0 0 0 0 0 0 0 0 0 0 0 0 0
18 14 10 7 6 7 8 8 6 5 5 4 3 3 3 3 2 0 0 0 0 0 0 0 0 0 0 0 0 0 0 0 0 0 0 0 0 0 0 0 0 0 0
25 20 16 14 13 12 10 8 7 7 6 5 4 4 5 5 4 2 0 0 0 1 0 0 0 0 0 0 0 0 0 0 0 0 0 0 0 0 0 0 0 0 0
32 27 23 24 21 16 12 10 10 9 9 7 5 5 6 5 4 3 1 0 0 0 0 0 1 0 0 0 0 0 1 1 0 0 0 0 0 0 0 0 0 0 0
36 31 28 30 27 20 16 15 15 14 11 8 6 5 5 4 3 3 2 1 1 0 0 1 2 2 1 1 0 0 1 2 1 0 1 1 1 0 0 0 1 1 1
39 34 31 32 30 24 21 21 21 18 13 10 8 6 4 3 2 2 3 2 2 2 1 2 4 6 5 4 2 1 1 2 1 0 1 1 1 0 0 0 1 2 2
43 40 37 37 34 30 27 27 24 21 16 13 12 9 6 3 2 3 3 3 3 3 3 2 4 8 8 7 5 2 0 1 1 0 0 1 1 0 0 0 1 1 2
44 42 40 41 39 35 31 28 25 21 18 16 15 12 8 4 4 4 3 3 4 4 4 3 4 6 7 7 6 4 1 0 0 0 1 2 2 1 1 0 0 0 1
38 36 37 41 41 38 34 31 28 24 20 17 14 12 9 7 6 5 4 5 6 5 5 4 4 4 4 4 5 5 3 1 0 0 1 2 2 2 2 1 0 0 0
34 30 31 37 40 39 38 37 33 27 21 17 13 11 10 9 7 5 5 5 6 5 4 4 4 3 3 3 4 5 4 1 0 0 0 1 1 1 2 2 1 0 1
35 31 29 34 38 37 37 37 34 28 21 16 12 9 9 9 8 5 4 4 4 4 4 5 5 4 2 2 4 5 4 1 0 0 0 0 0 0 1 1 1 0 1
32 31 28 28 31 33 34 34 32 26 22 17 12 9 8 9 10 8 7 6 4 3 4 7 8 7 7 7 6 4 3 1 0 0 0 0 0 0 0 0 0 0 1
27 27 24 22 24 28 30 30 28 26 24 21 17 14 11 10 13 14 14 13 9 4 2 6 11 12 13 11 6 5 6 3 0 0 0 0 0 0 0 0 0 0 0
26 25 22 18 18 22 26 27 25 24 25 25 23 21 17 14 16 19 20 19 16 9 4 7 12 15 15 11 7 10 12 7 1 0 0 0 0 0 0 0 0 0 0
27 25 21 18 15 17 22 24 21 21 23 24 25 25 23 20 20 21 22 21 18 13 8 7 12 17 17 15 14 15 15 11 4 1 0 0 0 0 0 0 0 0 0
26 22 19 18 15 15 20 21 18 17 20 22 24 25 24 23 23 22 21 20 16 13 9 7 10 16 21 23 24 20 13 8 5 1 0 0 0 0 0 0 0 0 0
25 21 18 18 17 16 17 17 16 15 17 20 22 22 20 21 23 22 20 19 15 11 9 6 8 13 18 23 26 20 9 5 3 1 0 0 0 0 0 0 0 0 0
25 23 21 20 18 15 13 14 14 14 14 16 17 18 16 16 19 19 18 18 15 11 9 7 6 10 14 18 20 16 7 3 2 0 0 0 0 0 0 0 0 0 0
23 25 25 21 16 11 8 9 11 13 13 12 12 13 11 10 11 11 12 13 12 9 9 7 6 7 10 13 13 10 5 2 1 1 2 1 1 0 0 0 0 0 0
22 24 25 22 14 6 3 3 7 10 11 10 9 8 6 5 5 5 5 5 4 5 5 5 4 4 7 9 8 6 3 1 1 2 3 2 2 1 0 0 0 0 0
21 22 22 20 13 5 1 0 3 7 10 10 8 6 5 3 3 4 4 2 2 1 2 1 1 1 3 5 4 3 3 1 1 2 3 2 2 2 2 1 0 0 0
20 20 19 17 12 5 1 0 2 7 9 9 7 6 6 5 4 5 6 5 4 2 1 0 0 0 1 1 1 2 2 1 1 2 3 3 4 4 4 2 1 0 0
19 17 14 13 11 5 1 0 2 6 8 8 6 6 5 5 4 4 5 5 5 4 2 1 0 0 0 0 0 0 0 0 1 2 4 4 5 5 5 3 1 0 0
17 14 12 11 9 5 2 1 1 4 6 7 6 5 4 4 3 3 4 4 4 4 3 3 1 0 0 0 0 0 0 0 1 2 4 4 5 5 4 3 2 1 0
Wind_Speed
3 4 3 3 4 3 4 3 2 3 3 2 2 2 2 5 7 7 6 12 11 10 10 10 9 9 9 8 8 8 8 8 7 7 7 7 7 7 7 6 6 6 5
4 4 4 2 3 3 3 3 3 3 2 1 1 2 2 3 5 7 7 8 11 10 10 10 10 9 9 9 8 8 8 8 7 7 7 7 7 6 6 6 6 5 5
5 4 3 3 3 3 3 2 2 2 3 3 2 2 2 2 4 6 7 6 7 9 10 10 10 10 9 9 9 9 8 8 8 8 7 7 6 6 6 6 6 6 6
5 4 4 4 3 3 3 2 2 2 2 2 2 2 2 2 4 4 6 6 6 7 9 11 11 10 10 10 10 10 10 9 8 8 8 8 8 7 7 7 7 7 6
5 4 2 3 3 3 3 3 3 2 2 2 2 3 3 3 3 5 5 6 6 7 7 10 12 12 12 12 11 11 11 11 10 10 10 10 9 9 8 8 8 8 8
6 4 3 4 3 2 2 1 3 2 1 2 3 3 3 4 4 4 4 5 6 8 9 9 8 9 13 12 12 12 12 12 11 11 11 11 11 10 10 9 9 9 9
6 4 3 4 3 2 3 3 2 3 2 2 1 1 2 4 5 4 4 4 5 6 6 8 8 6 7 13 13 12 13 13 13 12 11 11 11 11 10 10 10 10 10
6 6 4 3 4 2 3 2 2 1 3 3 2 1 1 1 2 5 4 4 4 4 5 8 7 7 6 6 10 15 14 14 14 13 12 11 11 11 11 11 11 10 10
6 5 7 5 4 4 4 4 3 3 2 2 2 2 1 2 2 2 5 5 4 4 4 5 7 7 8 6 7 13 16 14 13 14 13 12 11 11 11 11 11 11 11
6 6 6 6 4 4 4 5 5 3 3 2 2 2 2 2 1 1 2 3 6 5 5 5 6 7 7 6 7 12 16 15 14 14 13 12 12 11 11 12 12 12 12
6 6 6 5 5 4 4 4 3 4 3 3 3 2 2 2 3 2 2 2 3 4 5 5 3 4 5 5 6 10 16 16 15 14 13 12 12 12 12 12 12 12 12
4 6 6 5 5 4 5 4 4 5 4 3 3 2 2 2 3 3 3 3 3 4 4 4 4 4 4 5 8 12 16 16 15 14 13 12 12 12 12 12 12 12 12
5 6 6 5 5 5 5 5 5 4 5 4 4 3 3 3 2 2 2 2 2 2 3 3 4 4 4 3 4 10 14 15 15 14 13 12 12 12 12 12 12 12 12
5 6 6 6 6 6 6 5 5 6 5 5 6 5 3 3 3 3 3 2 2 2 2 2 2 4 3 3 6 9 8 14 14 14 13 12 12 12 12 11 11 11 11
5 6 6 6 5 5 5 5 4 5 4 5 5 5 5 4 4 3 2 2 2 2 2 2 1 2 2 2 6 5 4 11 13 13 13 12 12 12 12 11 11 11 10
4 5 6 5 5 5 5 5 4 5 5 5 4 4 4 4 3 3 2 2 2 2 3 2 2 1 1 2 5 3 3 8 11 12 13 13 12 12 12 11 11 11 10
3 3 4 4 4 4 5 5 5 5 5 5 5 5 5 4 3 2 2 2 2 2 2 2 1 1 1 1 2 2 3 4 6 12 13 13 13 12 12 11 11 11 10
2 3 3 3 4 4 4 5 6 5 5 5 5 4 4 4 4 3 2 2 2 1 2 3 2 1 1 1 2 3 3 3 3 8 11 12 11 10 10 11 11 11 11
2 2 2 2 3 3 3 3 3 3 3 3 3 3 3 3 3 2 2 2 1 2 2 2 2 2 1 1 1 2 3 2 4 3 7 9 9 10 10 10 9 10 9
3 2 2 2 1 1 1 2 2 2 1 1 1 1 1 1 2 2 2 2 2 1 1 1 2 2 1 1 0 1 2 2 3 3 2 3 7 9 10 10 9 9 8
3 2 2 2 1 1 1 1 1 1 1 1 1 1 1 2 1 1 1 0 0 0 1 1 1 1 1 2 1 2 2 3 2 2 2 2 2 3 5 7 9 8 8
2 3 3 3 2 1 3 3 2 2 2 2 2 1 1 2 2 2 3 2 1 0 1 1 1 1 2 2 2 2 2 3 3 2 2 4 2 2 3 2 5 8 9
3 4 3 3 4 4 5 6 5 4 3 3 3 2 1 2 2 1 2 2 1 1 0 1 0 1 1 2 2 2 2 2 3 3 2 3 2 2 2 1 6 9 10
4 4 4 5 5 5 7 6 7 6 6 5 5 4 3 3 3 2 2 2 2 2 1 1 1 1 1 1 2 2 2 3 3 2 1 2 2 3 4 2 4 6 7
5 5 5 5 6 7 8 6 6 5 5 6 6 6 5 4 5 3 2 2 2 2 3 4 3 2 1 1 2 2 3 3 3 3 2 2 3 4 3 2 2 3 4
6 6 7 7 8 7 9 8 6 4 5 5 5 6 10 8 8 7 4 3 3 2 2 1 1 0 0 1 1 2 2 3 3 3 3 3 3 4 3 2 2 2 3
Wind_Direction
151 136 136 153 165 164 175 189 194 165 162 147 157 138 93 109 122 128 140 154 154 157 159 161 162 163 164 164 165 164 164 162 160 161 163 161 159 159 159 155 150 150 149
140 137 145 163 164 163 171 175 171 153 144 120 120 124 135 113 120 137 145 158 162 166 169 172 173 174 175 177 177 177 177 177 175 175 176 175 174 174 174 173 173 171 170
147 152 154 174 175 153 145 160 156 146 161 168 166 183 153 142 140 139 150 159 168 178 181 182 182 184 186 186 188 189 189 189 188 187 187 186 188 189 188 191 191 189 189
158 167 163 177 165 154 156 156 172 170 165 167 173 186 156 155 156 160 165 168 169 176 188 193 191 193 196 197 198 198 199 198 197 198 198 199 201 201 202 204 205 204 203
170 181 169 148 164 164 161 190 164 172 169 178 183 180 176 179 172 193 180 180 176 170 175 191 196 198 202 204 205 205 205 204 205 208 209 210 211 210 210 212 214 214 215
181 182 166 162 185 171 169 158 125 165 167 192 221 187 190 183 185 191 195 189 181 182 182 179 189 203 208 209 208 210 210 209 210 214 216 218 218 216 215 217 219 221 222
177 183 182 165 188 175 171 168 164 183 203 195 191 223 215 200 192 186 202 197 196 196 179 171 185 191 199 212 212 211 213 213 213 216 219 221 222 222 220 221 223 225 227
177 185 187 181 176 172 181 187 172 192 211 192 182 192 217 238 230 206 195 199 201 195 186 188 190 186 189 186 208 211 214 216 216 217 218 219 222 222 221 222 224 225 228
187 193 176 197 181 185 178 190 194 202 224 219 192 173 177 217 236 228 209 198 192 198 203 197 194 190 197 189 189 205 210 212 216 218 219 219 219 220 221 223 225 227 229
188 189 187 191 192 191 168 194 191 204 209 235 231 222 218 164 193 240 237 207 194 201 211 214 207 193 198 193 186 187 199 207 212 217 219 219 217 218 221 225 229 232 233
196 198 195 188 192 197 177 191 171 197 204 228 231 221 234 216 218 206 230 225 212 207 202 211 212 199 194 193 182 189 192 201 207 213 217 218 219 220 224 228 234 237 238
195 204 199 190 196 199 185 184 185 197 208 227 239 235 220 216 227 225 219 216 216 216 200 200 200 198 199 197 200 192 189 196 202 208 214 218 220 223 226 230 234 238 240
193 202 201 193 201 201 191 186 191 207 207 217 226 239 240 239 239 246 239 238 236 225 202 201 196 191 203 194 187 181 187 192 198 205 210 215 220 224 226 229 233 238 241
196 192 195 194 204 204 204 192 196 205 206 213 227 230 246 252 244 242 237 239 260 268 234 221 193 188 197 178 171 180 191 193 199 204 210 215 219 224 227 230 234 238 242
192 187 194 197 201 206 208 195 209 209 198 208 224 224 230 247 247 249 249 234 223 254 264 249 225 201 180 160 166 190 191 195 202 207 212 216 220 224 227 230 233 235 238
198 181 194 196 201 204 210 208 213 213 206 211 216 224 226 237 248 237 237 242 229 228 250 247 241 249 198 186 165 188 198 186 203 209 213 216 218 221 224 227 230 232 235
191 188 194 196 198 204 209 209 216 213 207 213 220 219 221 228 241 246 240 237 241 226 242 264 259 279 197 180 165 229 226 195 204 211 212 213 216 219 222 226 230 232 233
190 188 195 194 199 203 206 210 218 217 213 213 216 218 221 223 221 240 251 246 247 240 231 251 267 278 251 218 189 231 253 245 224 209 208 212 215 218 223 225 227 229 232
159 163 180 191 206 208 204 211 215 227 229 223 214 210 218 224 222 221 226 256 269 268 238 235 255 261 251 262 234 248 263 280 278 231 205 209 214 215 221 227 229 230 231
151 159 163 170 187 215 225 216 197 214 233 228 204 183 212 221 230 229 218 221 241 276 291 281 272 282 287 290 293 275 288 290 289 293 275 230 219 219 222 227 229 229 229
142 140 132 116 105 130 279 244 177 189 168 107 90 90 74 64 80 131 164 148 239 275 282 273 275 291 326 345 343 316 310 306 305 326 322 289 246 234 229 230 232 228 224
108 101 94 95 80 48 46 68 96 98 95 94 85 90 89 65 61 95 98 89 81 149 275 274 302 335 342 350 346 334 333 325 315 334 319 300 300 266 249 216 202 211 222
106 101 97 87 77 57 61 77 87 92 80 69 64 54 37 47 53 69 107 102 85 57 215 224 294 322 347 356 341 328 324 307 283 284 285 285 296 300 292 238 203 213 221
105 97 89 86 81 57 56 77 97 92 81 70 60 52 50 36 15 9 77 83 78 57 75 108 95 48 38 0 344 322 306 301 288 307 335 301 315 307 308 292 229 225 229
100 94 87 82 79 61 50 64 92 93 87 74 61 47 44 40 19 40 94 93 84 65 67 84 109 135 116 16 360 353 346 345 335 337 349 320 309 308 300 297 285 245 249
100 95 83 73 73 64 51 59 76 92 93 86 73 59 50 46 38 42 59 65 58 31 43 71 89 148 226 13 26 15 1 351 340 330 1 350 333 336 319 323 344 322 281